Starlink 35883

operational
NORAD ID: 66892 Int'l Des: 2025-283 Owner: SPXS Country: US Constellation: starlink
LEOCIRCULAR

Starlink 35883について

説明を読み込み中...

リアルタイム位置

3D地球を読み込み中...

次回通過

高度履歴

Altitude vs Time

uPlot chart will show altitude changes over time

軌道要素

1 66892U 25283Q 25347.58336806 -.01293211 49288-3 -36207-2 0 9996
2 66892 53.1550 69.6313 0001129 51.6331 333.8846 15.92990564 2504
Epoch: Dec 13, 2025 • Age: 19 hours

現在のステータス

高度 315.2 km
速度 7.72 km/s
衛星直下点 -44.90°S, 155.95°E
打ち上げ日 Dec 4, 2025
運用期間 9 days
タイプ internet

技術仕様

分類 Payload
質量 575.00 kg
乾燥質量 530.00 kg
総質量 575.00 kg
長さ 0.30 m
直径 4.10 m
スパン 29.00 m
形状 Box + pan
製造者 SPXS
バスタイプ Starlink V2MO
フェーズステータス In Orbit
所有者/国 SPXS/US

大規模コンステレーション

Loading constellations...